Weather History for Penn Yan, NY

Change the Weather History Date:

Sunday, September 1, 2013

  Actual Average (KITH) Record (KITH)
Temperature  
Mean Temperature 74 °F -  
Max Temperature 82 °F 75 °F 99 °F (1932)
Min Temperature 68 °F 52 °F 37 °F (1991)
Cooling Degree Days 10    
Growing Degree Days 24 (Base 50)    
Moisture  
Dew Point 67 °F    
Average Humidity 82    
Maximum Humidity 96    
Minimum Humidity 62    
Precipitation  
Precipitation 0.07 in - - ()
Sea Level Pressure  
Sea Level Pressure 29.84 in    
Wind  
Wind Speed 1 mph (ESE)    
Max Wind Speed 9 mph    
Max Gust Speed -    
Visibility 6 miles    
Events Rain , Thunderstorm    
Averages and records for this station are not official NWS values.
T = Trace of Precipitation, MM = Missing Value Source: NWS Daily Summary

Daily Weather History Graph

Daily Weather History Graph

Search for Another Location

Airport:

Trip Planner

Search our weather history database for the weather conditions in past years. The results will help you decide how hot, cold, wet, or windy it might be!

Date:

Astronomy

Sep. 01, 2013 Rise Set
Actual Time 6:33 AM EDT 7:42 PM EDT
Civil Twilight 6:04 AM EDT 8:11 PM EDT
Nautical Twilight 5:29 AM EDT 8:45 PM EDT
Astronomical Twilight 4:52 AM EDT 9:22 PM EDT
Moon 2:50 AM EDT (9/1) 5:20 PM EDT (9/1)
Length of Visible Light 14h 06m
Length of Day
13h 08m
Waning Crescent, 14% of the Moon is Illuminated
Sep 1
Waning Crescent
Sep 5
New
Sep 12
First Quarter
Sep 19
Full
Sep 26
Last Quarter

Hourly Weather History & Observations

Time (EDT) Temp. Heat Index Dew Point Humidity Pressure Visibility Wind Dir Wind Speed Gust Speed Precip Events Conditions
12:27 AM 68.0 °F - 66.2 °F 94% 29.86 in 4.0 mi Calm Calm - N/A   Scattered Clouds
12:36 AM 68.0 °F - 66.2 °F 94% 29.85 in 4.0 mi Calm Calm - N/A   Mostly Cloudy
12:53 AM 69.1 °F - 66.9 °F 93% 29.83 in 4.0 mi Calm Calm - N/A   Overcast
1:53 AM 69.1 °F - 66.9 °F 93% 29.82 in 4.0 mi Calm Calm - N/A   Overcast
2:38 AM 69.8 °F - 66.2 °F 88% 29.84 in 5.0 mi Calm Calm - N/A   Overcast
2:45 AM 69.8 °F - 66.2 °F 88% 29.84 in 5.0 mi Calm Calm - N/A   Overcast
2:53 AM 69.1 °F - 66.9 °F 93% 29.82 in 5.0 mi Calm Calm - N/A   Overcast
3:27 AM 69.8 °F - 66.2 °F 88% 29.85 in 4.0 mi Calm Calm - N/A   Overcast
3:33 AM 69.8 °F - 66.2 °F 88% 29.85 in 4.0 mi Calm Calm - N/A   Overcast
3:53 AM 69.1 °F - 66.9 °F 93% 29.83 in 5.0 mi Calm Calm - N/A   Overcast
4:08 AM 69.8 °F - 66.2 °F 88% 29.85 in 6.0 mi Calm Calm - N/A   Overcast
4:51 AM 69.8 °F - 66.2 °F 88% 29.86 in 4.0 mi Calm Calm - N/A   Overcast
4:53 AM 69.1 °F - 66.9 °F 93% 29.84 in 4.0 mi Calm Calm - N/A   Overcast
5:36 AM 68.0 °F - 66.2 °F 94% 29.86 in 4.0 mi Calm Calm - N/A   Overcast
5:53 AM 68.0 °F - 66.9 °F 96% 29.86 in 4.0 mi Calm Calm - N/A   Overcast
6:23 AM 68.0 °F - 66.2 °F 94% 29.87 in 3.0 mi Calm Calm - N/A   Overcast
6:53 AM 68.0 °F - 66.9 °F 96% 29.86 in 2.5 mi Calm Calm - N/A   Overcast
7:12 AM 69.8 °F - 66.2 °F 88% 29.88 in 3.0 mi Calm Calm - N/A   Overcast
7:24 AM 69.8 °F - 66.2 °F 88% 29.88 in 3.0 mi Calm Calm - N/A   Overcast
7:32 AM 69.8 °F - 66.2 °F 88% 29.88 in 3.0 mi Calm Calm - N/A   Overcast
7:53 AM 69.1 °F - 66.9 °F 93% 29.87 in 3.0 mi Calm Calm - N/A   Overcast
8:11 AM 69.8 °F - 66.2 °F 88% 29.88 in 3.0 mi Calm Calm - N/A   Overcast
8:30 AM 69.8 °F - 66.2 °F 88% 29.88 in 4.0 mi Calm Calm - N/A   Overcast
8:53 AM 71.1 °F - 66.9 °F 87% 29.86 in 5.0 mi Calm Calm - N/A   Overcast
9:53 AM 73.9 °F - 66.9 °F 79% 29.86 in 8.0 mi Calm Calm - N/A   Partly Cloudy
10:51 AM 75.2 °F - 66.2 °F 73% 29.87 in 9.0 mi Calm Calm - N/A   Mostly Cloudy
10:53 AM 75.9 °F - 66.0 °F 71% 29.85 in 9.0 mi SE 3.5 mph - N/A   Mostly Cloudy
11:53 AM 77.0 °F - 66.9 °F 71% 29.84 in 8.0 mi Variable 5.8 mph - N/A   Overcast
12:03 PM 77.0 °F - 66.2 °F 69% 29.86 in 8.0 mi East 3.5 mph - N/A   Overcast
12:53 PM 77.0 °F - 66.0 °F 69% 29.83 in 8.0 mi ESE 3.5 mph - N/A   Mostly Cloudy
1:40 PM 78.8 °F - 66.2 °F 65% 29.85 in 8.0 mi Calm Calm - N/A   Overcast
1:53 PM 78.1 °F - 66.9 °F 68% 29.83 in 7.0 mi Calm Calm - N/A   Overcast
2:20 PM 78.8 °F - 66.2 °F 65% 29.84 in 7.0 mi Calm Calm - N/A   Overcast
2:32 PM 78.8 °F - 66.2 °F 65% 29.83 in 8.0 mi Calm Calm - N/A   Overcast
2:53 PM 80.1 °F 82.7 °F 68.0 °F 67% 29.81 in 9.0 mi NW 4.6 mph - N/A   Overcast
3:01 PM 80.6 °F 83.9 °F 69.8 °F 70% 29.83 in 8.0 mi NNE 4.6 mph - N/A   Mostly Cloudy
3:53 PM 81.0 °F 83.3 °F 66.9 °F 62% 29.79 in 8.0 mi Variable 3.5 mph - N/A   Scattered Clouds
4:53 PM 80.1 °F 82.3 °F 66.9 °F 64% 29.78 in 8.0 mi East 4.6 mph - N/A   Mostly Cloudy
5:53 PM 79.0 °F - 68.0 °F 69% 29.78 in 7.0 mi Calm Calm - N/A   Partly Cloudy
6:53 PM 78.1 °F - 68.0 °F 71% 29.78 in 7.0 mi Calm Calm - N/A   Mostly Cloudy
7:53 PM 75.0 °F - 69.1 °F 82% 29.78 in 7.0 mi Calm Calm - N/A   Overcast
8:53 PM 73.9 °F - 69.1 °F 85% 29.77 in 6.0 mi Calm Calm - N/A   Haze
9:53 PM 73.9 °F - 64.9 °F 73% 29.79 in 5.0 mi WSW 9.2 mph - 0.01 in Rain , Thunderstorm Light Thunderstorms and Rain
10:53 PM 70.0 °F - 64.9 °F 84% 29.77 in 10.0 mi SE 6.9 mph - 0.06 in   Partly Cloudy
11:53 PM 69.1 °F - 66.9 °F 93% 29.80 in 10.0 mi Calm Calm - 0.00 in   Mostly Cloudy